{"data":{"norad_id":68786,"epoch":"2026-09-19T22:40:41.844000Z","epoch_age_seconds":87868,"freshness":"FRESH","line1":"1 68786U 26086W   26262.94492875  .00011857  00000+0  36889-3 0  9991","line2":"2 68786  97.2852 298.4387 0001083 116.1202 244.0152 15.33457336 23605","mean_motion":15.33457336,"eccentricity":0.0001083,"inclination_deg":97.2852,"raan_deg":298.4387,"arg_perigee_deg":116.1202,"mean_anomaly_deg":244.0152,"bstar":0.00036889,"rev_number":2360,"period_min":93.905449222097,"perigee_km":464.76530487934,"apogee_km":466.24763805526,"semimajor_km":6843.6434714673,"source":"CELESTRAK","updated_at":"2026-09-20T09:00:44.003315Z"}}